Regional Weather Roundup
Issued by NWS Binghamton, NY

Home | Current Version | Previous Version | Text Only | Print | Product List | Glossary On
Versions: 1 2 3 4 5 6 7 8 9 10 11 12 13 14 15 16 17 18 19 20 21 22 23 24 25 26
000
ASUS41 KBGM 270310
RWRBGM

REGIONAL WEATHER ROUNDUP
NATIONAL WEATHER SERVICE BINGHAMTON NY
1100 PM EDT THU MAY 26 2016

Note: "fair" indicates few or no clouds below 12,000 feet with no
significant weather and/or obstructions to visibility.

* = Station(s) that does not report precipitation, such as rain,
snow, etc, also no thunder or fog.

NYZ009-015>018-022>025-036-037-044>046-055>057-062-270400
...Central New York...

CITY           SKY/WX    TMP DP  RH WIND       PRES   REMARKS
Binghamton     CLEAR     73  55  53 S5        30.06R
Cortland       FAIR      68  59  73 CALM      30.04S
Dansville      PTCLDY    68  65  90 SE8       30.00F
Elmira         CLOUDY    71  59  65 CALM      30.01S
Ithaca         CLOUDY    70  57  64 SE3       30.03F
Hamilton       PTCLDY    68  57  68 SE5       30.04S
Hornell        PTCLDY    64  63  94 E5        30.06S FOG
Monticello     CLEAR     72  55  56 S3        30.10S
Oneonta        CLEAR     72  52  49 CALM      30.08S
Penn Yan       CLEAR     65  61  87 CALM      30.01F
Rome           MOCLDY    71  61  70 E5        30.01R
Sidney         CLEAR     64  63  94 CALM      30.05S
Syracuse       MOCLDY    69  61  75 E3        29.97F
$$

PAZ038>040-043-044-047-048-072-270400
...Northeast Pennsylvania...

CITY           SKY/WX    TMP DP  RH WIND       PRES   REMARKS
Hazleton       CLOUDY    70  59  68 CALM      30.13R
Scranton       MOCLDY    78  57  48 S8        30.05R
$$
&&
KEY
WCI = Wind Chill Index
VSB = Visibility
HX  = Heat Index
$$




USA.gov is the U.S. government's official web portal to all federal, state and local government web resources and services.